Regional Weather Roundup
Issued by NWS Little Rock, AR

Home | Current Version | Previous Version | Graphics & Text | Print | Product List | Glossary On
Versions: 1 2 3 4 5 6 7 8 9 10 11 12 13 14 15 16 17 18 19 20 21 22 23 24 25 26 27 28 29 30 31 32 33 34 35 36 37 38 39 40 41 42 43 44 45 46 47 48 49 50
997
ASUS44 KLZK 251405
RWRLZK

WEATHER ROUNDUP FOR ARKANSAS
NATIONAL WEATHER SERVICE LITTLE ROCK AR
900 AM CDT TUE APR 25 2017

NOTE: "FAIR" INDICATES FEW OR NO CLOUDS BELOW 12,000 FEET WITH NO
SIGNIFICANT WEATHER AND/OR OBSTRUCTIONS TO VISIBILITY.

ARZ001-003-010-029-251500-
NORTHWEST ARKANSAS

CITY           SKY/WX    TMP DP  RH WIND       PRES   REMARKS
FAYETTEVILLE   SUNNY     65  51  60 S14G24    29.56F
FORT SMITH     MOSUNNY   65  49  56 E12       29.58F
HARRISON       SUNNY     63  49  60 SE10      29.61F
BENTONVILLE    MOSUNNY   64  48  55 S13G20    29.54F
ROGERS         SUNNY     65  50  58 SE14      29.55F
SILOAM SPGS    SUNNY     66  48  52 S20G29    29.52F
HIGHFILL       CLOUDY    66  50  56 S21G26    29.53F
SPRINGDALE     SUNNY     64  50  59 S13G18    29.57F
$$

ARZ004-005-016-251500-
NORTH CENTRAL ARKANSAS

CITY           SKY/WX    TMP DP  RH WIND       PRES   REMARKS
BATESVILLE     SUNNY    N/A N/A N/A S12       29.70S
FLIPPIN        SUNNY    N/A N/A N/A SE8       29.61F
$$

ARZ040-041-251500-
WEST CENTRAL ARKANSAS

CITY           SKY/WX    TMP DP  RH WIND       PRES   REMARKS
MENA           SUNNY     66  55  68 SW5       29.65F
MOUNT IDA      SUNNY     66  50  56 VRB3      29.64S
$$

ARZ009-017-025-026-028-251500-
NORTHEAST ARKANSAS

CITY           SKY/WX    TMP DP  RH WIND       PRES   REMARKS
CORNING        FAIR      64  55  72 S12       29.72F
JONESBORO      SUNNY     62  56  80 S10       29.73S
NEWPORT        SUNNY     65  53  65 MISG      29.72S
WALNUT RIDGE   SUNNY     64  52  63 S14       29.71S
BLYTHEVILLE    SUNNY     64  58  80 S9        29.75F
$$

ARZ022-023-033-042-044-251500-
CENTRAL ARKANSAS

CITY           SKY/WX    TMP DP  RH WIND       PRES   REMARKS
LITTLE ROCK    MOSUNNY   64  53  67 S8        29.71S
N LITTLE ROCK    N/A     64  53  67 S7        29.70S
JACKSONVILLE   SUNNY     64  53  68 S6        29.70S
CONWAY           N/A     64  54  68 S9        29.67F
SEARCY         SUNNY     63  56  78 S7        29.73S
HOT SPRINGS    SUNNY     64  53  67 VRB5      29.69S
RUSSELLVILLE   SUNNY     64  52  64 VRB5      29.66S
$$

ARZ036-251500-
EAST ARKANSAS

CITY           SKY/WX    TMP DP  RH WIND       PRES   REMARKS
WEST MEMPHIS   SUNNY     63  58  83 S10       29.75S
$$

ARZ050-053-066-070-073-251500-
SOUTHWEST ARKANSAS

CITY           SKY/WX    TMP DP  RH WIND       PRES   REMARKS
ARKADELPHIA    FAIR      65  58  78 VRB7      29.70S
CAMDEN         SUNNY     64  54  68 S8        29.71F
TEXARKANA      SUNNY     64  57  78 S12G22    29.69S
EL DORADO        N/A    N/A N/A N/A MISG      29.73S
DE QUEEN       SUNNY     64  58  80 S10       29.65S
$$

ARZ056-057-069-251500-
SOUTHEAST ARKANSAS

CITY           SKY/WX    TMP DP  RH WIND       PRES   REMARKS
PINE BLUFF     SUNNY     64  54  69 S10       29.73S
STUTTGART      SUNNY     64  46  52 S12       29.74S
MONTICELLO     SUNNY     66  54  65 SW7       29.76R

$$






USA.gov is the U.S. government's official web portal to all federal, state and local government web resources and services.